User: anonymous   Login
Location: Brachbach
(49.1847°N, 9.7240°E)
Time: 08:23:22
(UTC+00:00)
Language:

Nadezhda 1 Rocket - Orbit

View from above orbital plane
View from above orbital plane
View from above satellite
View from above satellite

Ground track
Ground track

The orbit data is extracted from the following two-line orbital elements,

1 20104U 89050B   24198.13973159  .00000057  00000-0  41024-4 0  9998
2 20104  82.9549  52.2932 0044388 139.3981 221.0501 13.77482806760583
Epoch (UTC): 16 July 2024 03:21:12
Eccentricity: 0.0044388
inclination: 82.9549°
perigee height: 940 km
apogee height: 1005 km
right ascension of ascending node: 52.2932°
argument of perigee: 139.3981°
revolutions per day: 13.77482806
mean anomaly at epoch: 221.0501°
orbit number at epoch: 76058

The dashed part of the orbit path shows where the satellite is in the earth's shadow,  

DLR